Location: Unspecified
(0.0000°N, 0.0000°E)
Time: 14:58:22
(UTC+00:00)

CZ-3C DEB - Pass Details

Date: 19 February 2026
Orbit: 521 x 35552 km, 20.3° (Epoch: 6 July)

Event Time Altitude Azimuth Distance (km) Brightness Sun altitude
Rises 01:27:41 0° 250° (WSW) 10,676 ? -68.5°
Reaches altitude 10° 01:33:50 10° 247° (WSW) 11,182 ? -67.1°
Maximum altitude 07:37:12 76° 328° (NNW) 10,132 ? 20.4°
Drops below altitude 10° 08:08:47 10° 59° (ENE) 6,000 ? 28.1°
Sets 08:11:19 0° 61° (ENE) 6,288 ? 28.8°
